FLOCK 2E-12

Last updated on March 4, 2018, 12:15 a.m. UTC

1 41573U 98067JX  18062.65860353  .09928625  12431-4  80990-3 0  9998
2 41573  51.5922 110.2436 0003600   1.2289 358.7449 16.39031415100592

Satellite is not in orbit.